CZ-4C DEB, 43338

Orbit data source: Space-Track

CZ-4C DEB, 43338 is space debris in LEO originally from a launch on Tue, 10 Apr 2018 UTC launched from the Jiuquan Satellite Launch Center, China (JSC). Debris objects in space refer to the collection of defunct objects orbiting the Earth. Examples of debris include non-operational satellites, rocket bodies, and fragments generated from explosions, collisions, or faulty payload assembly.

Loading next visibility...
Identifier
43338, 2018-034H
Orbit
LEO
Last TLE update
1 day ago
Origin
Manufacturer
Unknown
Mission
Spacecraft
Bus & Motor
Unknown
Mass
Unknown
Launch date (UTC)
2018-04-10 (7 years ago)
Launch vehicle
Unknown
Launch site
Jiuquan Satellite Launch Center, China (JSC)
Object type
Payload
Rocket body
Debris
Shape & HBR
Unknown
Radar Cross Section
Small (<0.1 m²)

Expand to show TLE details & history

TLE from 1 day ago
0 CZ-4C DEB
1 43338U 18034H   25128.08892977 -.00000063  00000-0  38743-4 0  9994
2 43338  63.3981  60.5116 0238877   7.1476 353.2857 13.44694885347382
Epoch: 2025-05-08T02:08Z
Definitive object data (Epoch: 2025-05-08T02:08:03.532Z)
Latitude
Longitude
162.33245°
Altitude
916.434 km
Speed
7.481 km/s
True Right ascension
04h 02m 02s
True Declination
0° 00' 00"
Sunlit
Object was in daylight at TLE epoch
Visualization TLE readout
Latitude
12.66502°
Longitude
-27.04829°
Altitude
1,258.466 km
Speed
7.147 km/s
Apparent Right ascension
17h 37m 07s
Apparent Declination
-34° 20' 56"
Sunlit
Object is in full shadow
Visualization observer readout
Local Sidereal Time
13:51:58
Azimuth
136.621° SSE
Elevation
-0.607°
Doppler factor
1
Orbital elements
Apogee altitude
1,269.083 km
Perigee altitude
912.258 km
Semi-major axis
7,468.807 km
Eccentricity
0.0238877
Inclination
63.3981°
RAAN
60.5116°
Arg. of periapsis
7.1476°
True anomaly
352.95589°
Mean anomaly
353.2857°
Eccentric anomaly
353.12179°
Mean motion
3.36253 °/min
BSTAR
0.000038743
Orbital period
107.06 mins
Loading maneuver chart data...
Loading SW <> Apogee altitude chart data...
Loading historical data...
Loading historical data...
Loading historical data...
Loading historical data...
Loading historical data...
Loading historical data...
Loading historical data...

CZ-4C DEB Visibility forecast

Observer location: undefined°, undefined°

Span
Click to sort rows by Start time (UTC) header in descending order
Start Az.
Max El. time (UTC)
Max El. Az.
Max El.
End time (UTC)
End Az.
11 mins2025-05-09 07:17:15.290Z302.22° NW2025-05-09 07:23:15.290Z242.392° WSW26.052°2025-05-09 07:28:15.290Z196.944° SSW
11 mins2025-05-09 21:06:15.290Z212.289° SW2025-05-09 21:11:15.290Z34.135° NE44.973°2025-05-09 21:17:15.290Z34.133° NE
8 mins2025-05-09 22:59:15.290Z286.75° WNW2025-05-09 23:02:15.290Z320.137° NNW19.527°2025-05-09 23:07:15.290Z11.672° NNE
4 mins2025-05-10 02:49:15.290Z11.108° NNE2025-05-10 02:50:15.290Z20.099° NNE12.836°2025-05-10 02:53:15.290Z45.769° ENE
12 mins2025-05-10 04:38:15.290Z344.911° N2025-05-10 04:43:15.290Z46.39° ENE33.111°2025-05-10 04:50:15.290Z114.483° SE
|